Wind_Speed
26 26 25 25 26 26 26 25 25 25 25 24 25 25 25 25 24 25 25 26 27 27 27 27 27 28 28 28 29 29 30 30 30 30 30 30 30 30 30 30 30 29 29
28 28 27 27 27 27 27 27 27 26 26 26 26 26 26 26 26 27 27 28 28 28 29 29 29 30 30 31 31 31 31 31 31 31 31 31 32 32 32 32 32 31 31
29 30 30 30 30 29 29 29 28 28 27 27 27 27 27 28 28 29 29 29 29 29 30 30 31 31 32 32 32 32 32 33 33 33 33 33 33 33 33 33 33 33 33
31 30 30 31 31 31 30 30 29 29 29 28 28 29 29 30 30 30 30 31 31 31 31 32 32 32 33 33 33 33 33 34 34 34 35 35 35 35 35 34 34 34 34
33 33 32 32 32 31 31 30 30 30 30 30 30 31 31 31 31 32 32 32 32 32 33 33 34 34 35 35 35 35 35 35 36 36 36 36 36 36 36 36 36 36 36
34 33 33 33 33 32 32 32 31 32 32 31 32 32 32 33 34 34 33 34 34 34 35 35 35 36 36 36 36 37 37 37 38 38 38 38 37 37 37 37 37 37 37
34 34 33 33 33 33 33 33 33 33 33 33 33 34 35 35 35 35 35 35 35 36 37 37 37 37 37 37 38 38 39 39 40 40 39 39 38 38 37 37 38 38 37
34 34 34 34 34 34 34 34 34 34 35 35 36 37 37 36 37 37 37 37 38 38 39 39 40 39 39 39 40 40 41 41 41 40 40 40 40 39 39 39 39 39 38
36 35 35 35 36 36 36 36 35 35 36 37 38 38 38 38 38 38 39 40 40 40 41 41 41 41 42 42 42 42 42 42 42 41 41 41 41 41 41 41 41 41 41
37 37 37 37 37 38 38 37 37 37 38 38 39 39 40 40 41 41 41 42 42 42 43 43 44 44 44 44 44 44 43 43 42 42 42 42 42 42 42 43 43 43 43
37 37 38 38 38 38 38 38 38 38 38 38 38 39 40 41 42 42 43 43 44 45 45 45 46 46 46 45 45 45 44 43 43 43 43 43 43 44 44 44 45 45 44
37 37 37 38 37 38 38 37 38 38 39 40 40 41 42 43 44 44 45 45 46 46 47 47 47 47 47 46 45 45 44 44 45 44 45 45 46 46 46 46 46 46 45
37 37 37 37 36 37 39 39 39 40 41 41 42 43 44 45 46 46 47 47 47 47 47 48 48 48 47 47 47 46 46 46 46 46 47 47 48 48 48 48 48 47 46
37 37 37 37 38 38 39 40 41 42 43 43 44 45 45 46 47 47 47 48 48 48 48 49 49 48 48 49 49 49 49 49 49 48 49 49 49 49 49 49 49 48 47
37 37 37 38 39 39 40 42 43 43 44 45 45 45 46 46 47 47 48 49 49 49 49 49 49 50 50 50 51 51 51 50 50 50 50 50 50 50 49 49 49 48 48
39 39 39 40 40 41 42 42 43 44 45 45 46 46 47 47 47 48 49 49 49 50 49 49 49 50 51 51 51 51 50 51 51 51 51 51 51 50 50 50 50 50 49
39 40 41 41 42 43 43 44 44 44 45 45 46 47 47 48 48 49 49 49 50 50 49 49 50 50 50 50 50 50 50 51 51 51 51 51 51 51 51 50 50 50 50
40 41 42 42 43 43 44 44 45 45 45 46 47 48 48 49 49 49 49 50 50 50 50 49 49 50 50 50 50 50 50 51 52 52 52 52 52 52 51 51 50 50 49
41 42 43 43 44 44 45 45 45 46 46 47 47 48 49 49 49 49 49 49 50 50 50 50 50 51 51 50 51 51 52 53 53 52 52 52 51 51 51 51 50 50 50
42 43 44 44 45 45 45 47 47 46 46 47 48 48 49 49 49 49 49 49 49 50 51 51 51 51 51 52 53 53 53 53 53 52 52 52 52 51 51 50 50 50 50
43 44 44 45 45 45 46 47 47 47 47 47 48 48 49 49 49 49 49 50 50 51 51 51 51 51 52 53 54 54 53 53 53 53 52 52 52 52 51 51 50 50 50
43 43 44 45 45 46 46 47 47 47 47 47 48 49 49 49 49 49 50 50 51 51 51 51 51 52 52 53 53 53 53 53 52 52 51 51 51 51 51 50 50 50 49
43 43 44 45 45 46 46 46 47 47 47 47 48 49 49 49 49 50 50 51 52 52 52 52 52 52 52 53 53 52 52 53 52 51 51 50 50 49 49 49 49 49 48
42 43 44 44 45 45 45 45 46 46 47 47 48 48 48 49 49 50 50 51 51 52 52 53 53 52 52 52 52 52 52 52 51 50 50 49 48 48 48 48 48 48 47
42 43 43 44 44 44 45 45 46 47 47 48 48 49 49 49 50 50 51 51 52 52 52 52 52 52 51 52 52 52 51 51 49 48 48 48 48 47 47 46 47 47 46
42 43 43 44 45 45 46 46 47 47 47 48 47 48 49 49 50 50 51 51 51 51 51 51 51 50 50 51 51 51 51 50 50 48 47 47 47 46 44 44 45 45 45
Wind_Direction
259 262 266 270 272 275 277 278 280 281 281 281 281 282 284 285 284 285 287 289 289 290 289 290 290 290 290 290 289 289 288 288 287 286 285 284 283 282 281 280 279 279 278
260 263 266 269 272 275 277 278 279 279 280 281 282 283 284 284 285 286 287 288 289 289 289 290 290 290 290 289 289 288 288 287 287 286 285 284 283 282 281 279 279 278 279
263 265 266 269 272 275 277 278 278 279 280 281 281 282 282 284 285 286 287 287 288 289 289 290 290 290 289 289 289 288 287 287 287 286 285 285 284 282 281 279 279 278 278
263 266 267 269 272 274 275 276 276 278 279 280 280 282 283 284 285 286 287 288 288 289 289 290 290 290 290 289 288 287 287 286 286 286 285 285 284 282 281 279 278 278 278
263 266 268 270 272 273 274 274 274 276 279 280 280 282 283 285 287 287 287 287 288 289 289 290 290 290 289 288 287 286 285 284 284 285 284 285 284 282 280 278 278 278 278
263 265 268 270 272 273 273 273 273 275 278 279 280 282 284 286 287 287 287 287 287 288 289 290 290 290 289 288 287 285 285 284 284 284 283 283 283 282 280 279 279 278 277
264 267 269 271 271 272 272 273 273 275 277 279 280 282 284 285 286 286 287 287 287 289 289 289 289 289 288 288 287 286 286 284 284 283 282 282 281 280 278 278 278 278 277
264 266 267 269 270 270 271 273 274 276 277 279 280 282 283 284 285 285 286 286 288 288 288 288 288 288 288 287 287 286 285 284 283 282 281 280 279 278 277 277 277 277 277
265 266 268 269 269 271 272 274 276 278 279 280 281 282 283 284 284 285 286 287 288 289 288 288 288 288 287 287 286 286 286 284 282 281 280 280 280 280 278 278 278 277 277
268 268 270 272 272 273 273 275 278 279 280 282 282 283 284 284 284 284 285 286 287 288 288 289 288 287 287 286 286 286 285 283 282 281 280 279 279 279 279 279 278 277 276
267 269 272 274 275 276 277 277 278 280 281 283 284 284 284 285 285 286 286 287 287 287 287 288 288 287 287 286 285 285 284 283 282 281 280 280 279 279 279 279 279 278 276
268 270 272 273 275 276 276 277 279 281 283 284 284 285 286 286 286 287 287 287 287 288 288 289 289 288 287 285 284 284 284 283 282 281 280 280 279 279 278 278 278 278 277
268 270 271 272 275 277 278 279 280 282 283 284 285 285 286 287 287 287 287 288 288 288 288 289 288 288 287 285 284 283 283 282 282 281 281 280 280 279 278 277 277 277 276
269 270 270 273 276 279 279 280 281 282 283 284 285 286 287 287 287 288 288 288 288 289 289 288 288 287 287 285 284 283 282 282 281 281 280 280 280 279 279 278 277 276 275
272 272 273 274 277 279 280 281 282 283 284 284 285 286 287 288 288 288 288 288 288 288 288 288 287 286 286 285 284 283 282 281 281 281 281 280 280 279 278 277 276 275 274
274 275 276 277 278 279 280 282 283 284 284 284 285 286 287 288 288 288 289 289 289 289 288 287 287 286 286 286 285 283 282 282 282 282 281 280 280 278 277 276 276 275 274
277 277 278 278 279 281 282 283 283 283 283 284 285 286 287 288 288 288 289 289 289 289 289 288 287 287 287 286 285 284 283 283 283 282 281 280 279 278 276 275 275 275 273
278 277 278 278 279 281 283 284 284 284 284 285 286 287 288 288 288 288 289 289 289 288 288 288 288 288 288 287 286 285 284 283 283 282 281 280 279 278 276 275 275 274 273
278 277 278 280 281 282 282 283 285 285 286 287 287 287 288 288 289 289 289 289 289 289 289 289 288 288 288 288 287 286 285 285 284 283 282 281 279 278 276 275 274 273 272
278 279 280 281 283 283 283 284 285 286 287 288 288 288 289 289 289 288 288 288 288 289 289 289 289 289 288 287 287 287 286 285 284 283 281 280 278 277 275 274 274 273 273
279 280 281 282 284 285 286 286 286 286 287 289 289 289 289 289 288 288 288 288 288 289 290 290 290 290 289 288 287 287 286 285 285 283 281 279 277 276 275 274 274 274 274
281 282 283 284 285 286 286 287 287 287 288 289 289 289 289 288 287 287 287 288 289 289 290 291 291 290 289 289 289 287 287 286 285 283 281 280 278 276 275 274 274 274 274
283 284 285 286 286 287 288 288 288 288 288 289 289 289 288 287 287 287 288 288 289 290 291 291 291 291 290 290 289 288 287 286 285 284 282 280 278 277 276 275 274 274 273
284 285 287 287 287 287 288 288 289 289 290 289 290 290 289 288 288 288 288 289 290 291 291 291 291 291 290 290 289 288 287 286 285 284 282 280 279 277 276 275 274 274 273
286 287 287 287 287 288 289 289 290 290 291 291 291 291 290 288 288 288 289 289 290 291 291 291 291 290 290 290 289 288 287 287 286 284 283 281 279 277 276 275 274 274 273
288 288 287 287 287 288 289 290 291 291 291 292 293 292 292 291 290 290 290 290 290 290 290 290 290 290 290 290 289 288 287 287 286 285 282 281 280 278 276 275 274 274 273
Height
5825 5826 5826 5826 5826 5826 5825 5825 5825 5824 5824 5823 5823 5822 5821 5821 5820 5819 5818 5817 5816 5814 5813 5812 5811 5809 5808 5807 5806 5805 5803 5802 5801 5800 5799 5798 5797 5796 5796 5795 5795 5795 5794
5820 5820 5821 5821 5821 5821 5820 5820 5820 5819 5818 5818 5817 5817 5816 5815 5814 5813 5812 5811 5810 5809 5807 5806 5805 5803 5801 5800 5799 5798 5797 5796 5794 5793 5792 5791 5790 5789 5789 5788 5788 5788 5787
5814 5814 5815 5815 5815 5815 5815 5814 5814 5814 5813 5812 5812 5811 5810 5809 5808 5807 5806 5805 5804 5803 5801 5800 5798 5796 5794 5793 5792 5791 5789 5788 5787 5786 5785 5784 5783 5782 5781 5781 5780 5780 5779
5807 5808 5809 5809 5809 5809 5809 5809 5808 5808 5807 5807 5806 5805 5804 5803 5802 5801 5800 5799 5797 5796 5795 5793 5791 5789 5788 5786 5784 5783 5782 5781 5780 5778 5777 5776 5775 5774 5773 5773 5772 5772 5771
5801 5802 5802 5802 5802 5802 5802 5802 5802 5802 5801 5800 5799 5798 5798 5797 5796 5795 5793 5792 5791 5789 5788 5786 5784 5782 5780 5778 5777 5775 5774 5773 5772 5770 5769 5768 5767 5766 5765 5764 5764 5763 5763
5795 5795 5795 5795 5795 5795 5795 5795 5795 5795 5794 5794 5793 5792 5791 5790 5789 5788 5786 5785 5784 5782 5780 5779 5777 5774 5772 5771 5769 5767 5766 5764 5763 5761 5760 5759 5758 5757 5756 5755 5755 5754 5754
5788 5788 5788 5788 5788 5788 5788 5788 5788 5787 5787 5786 5786 5785 5783 5782 5781 5780 5779 5777 5776 5774 5772 5770 5768 5766 5764 5762 5761 5759 5757 5755 5754 5752 5751 5750 5749 5748 5747 5746 5745 5745 5744
5780 5781 5781 5781 5781 5781 5780 5780 5780 5779 5779 5778 5778 5777 5776 5776 5774 5772 5771 5769 5768 5766 5764 5762 5760 5758 5755 5753 5751 5750 5748 5746 5744 5743 5741 5740 5739 5738 5737 5737 5736 5735 5734
5772 5773 5773 5773 5773 5773 5773 5772 5772 5771 5771 5770 5769 5768 5767 5767 5766 5764 5762 5760 5758 5757 5755 5752 5750 5748 5746 5744 5742 5740 5738 5736 5735 5733 5731 5730 5729 5728 5727 5726 5726 5725 5724
5764 5764 5765 5765 5764 5764 5764 5764 5763 5762 5762 5761 5760 5759 5758 5757 5756 5755 5754 5751 5749 5747 5745 5743 5740 5738 5736 5734 5732 5730 5728 5726 5724 5722 5721 5720 5718 5717 5716 5715 5714 5714 5713
5755 5755 5756 5755 5755 5755 5755 5755 5754 5753 5753 5752 5751 5749 5748 5746 5745 5744 5743 5741 5739 5736 5734 5732 5730 5727 5725 5723 5721 5719 5717 5715 5713 5711 5710 5709 5707 5706 5705 5704 5703 5702 5701
5746 5746 5747 5747 5746 5746 5746 5746 5745 5744 5743 5742 5741 5740 5738 5736 5734 5733 5732 5730 5728 5726 5723 5721 5718 5716 5714 5711 5709 5707 5705 5703 5702 5700 5698 5697 5695 5694 5693 5691 5690 5689 5689
5738 5738 5738 5737 5737 5737 5737 5736 5735 5734 5733 5732 5730 5729 5727 5725 5723 5721 5720 5718 5716 5714 5712 5709 5706 5704 5702 5699 5697 5695 5694 5692 5690 5688 5686 5684 5683 5681 5680 5679 5678 5677 5676
5729 5729 5729 5728 5728 5727 5727 5726 5725 5724 5723 5721 5719 5718 5716 5714 5712 5709 5707 5706 5704 5702 5700 5697 5694 5692 5689 5687 5685 5683 5681 5679 5677 5675 5673 5671 5670 5668 5667 5666 5665 5664 5663
5720 5720 5719 5719 5718 5717 5716 5715 5714 5713 5711 5710 5708 5706 5704 5702 5700 5697 5695 5693 5692 5690 5688 5685 5682 5679 5676 5674 5671 5669 5667 5665 5663 5661 5659 5658 5656 5654 5653 5652 5651 5650 5650
5710 5710 5710 5709 5708 5707 5705 5704 5703 5701 5700 5698 5696 5694 5692 5690 5687 5685 5682 5680 5678 5676 5674 5672 5669 5666 5663 5660 5657 5655 5653 5651 5649 5647 5645 5643 5642 5640 5639 5638 5637 5637 5636
5700 5700 5699 5698 5697 5695 5694 5692 5691 5689 5687 5686 5684 5682 5680 5677 5675 5672 5669 5667 5664 5662 5660 5658 5655 5652 5649 5647 5644 5641 5639 5637 5635 5632 5630 5629 5627 5625 5624 5623 5623 5622 5622
5690 5689 5688 5687 5685 5684 5682 5681 5679 5677 5675 5674 5671 5669 5667 5664 5662 5659 5656 5653 5651 5648 5646 5644 5641 5638 5635 5633 5630 5628 5625 5623 5620 5618 5616 5614 5612 5611 5609 5609 5608 5607 5607
5680 5679 5677 5676 5674 5672 5671 5669 5667 5665 5663 5661 5658 5656 5653 5651 5648 5646 5643 5640 5637 5634 5632 5630 5627 5624 5621 5619 5616 5614 5611 5608 5606 5603 5601 5599 5597 5595 5594 5594 5593 5593 5592
5669 5668 5666 5664 5663 5661 5659 5657 5655 5652 5650 5648 5645 5643 5640 5637 5634 5632 5629 5626 5623 5620 5618 5615 5613 5610 5607 5604 5601 5599 5596 5593 5591 5588 5585 5583 5582 5580 5579 5578 5578 5577 5577
5658 5657 5655 5653 5651 5649 5647 5644 5642 5640 5637 5635 5632 5629 5626 5623 5620 5618 5615 5613 5610 5607 5603 5601 5598 5595 5592 5589 5586 5583 5580 5578 5576 5573 5570 5568 5566 5565 5564 5562 5562 5561 5561
5647 5645 5643 5641 5639 5636 5634 5631 5629 5626 5624 5621 5618 5615 5612 5609 5606 5604 5601 5598 5595 5592 5589 5586 5583 5580 5576 5573 5570 5567 5564 5562 5560 5558 5555 5553 5551 5549 5548 5547 5546 5546 5546
5636 5634 5632 5629 5627 5624 5621 5618 5615 5613 5610 5608 5604 5601 5598 5595 5592 5589 5586 5583 5580 5576 5573 5571 5568 5564 5560 5557 5554 5551 5548 5545 5544 5541 5539 5538 5535 5534 5532 5531 5531 5530 5530
5624 5622 5619 5617 5614 5611 5608 5606 5603 5600 5597 5594 5591 5587 5584 5581 5578 5575 5572 5569 5566 5562 5558 5555 5552 5548 5544 5541 5538 5535 5532 5530 5528 5525 5522 5522 5520 5519 5517 5516 5515 5515 5515
5612 5610 5607 5604 5602 5599 5596 5593 5590 5587 5584 5581 5577 5573 5570 5567 5563 5560 5557 5554 5551 5547 5543 5539 5536 5532 5528 5525 5522 5519 5516 5513 5512 5511 5507 5506 5505 5504 5503 5502 5500 5499 5499
5600 5598 5595 5592 5589 5586 5583 5580 5577 5574 5571 5568 5564 5560 5556 5552 5548 5544 5542 5539 5536 5532 5528 5524 5521 5517 5513 5509 5506 5503 5500 5497 5496 5495 5493 5490 5489 5488 5489 5488 5486 5485 5485